{"data":{"norad_id":64517,"intl_designator":"2025-134T","name":"KUIPER-00057","alt_names":[],"object_type":"PAYLOAD","status":"ACTIVE","operator":null,"country":"US","launch_date":"2025-06-23","launch_site_code":"AFETR","launch_vehicle":null,"mission":null,"orbit_class":"UNKNOWN","rcs_meters":null,"size_class":null,"mass_kg":null,"dimensions":null,"purposes":[],"wikipedia_slug":null,"has_3d_model":false,"image_url":null,"decayed_at":null,"tle_current":{"epoch":"2026-05-24T18:32:56.633280Z","epoch_age_seconds":90592,"freshness":"FRESH","line1":"1 64517U 25134T   26144.77287770  .00001318  00000+0  20178-3 0  9993","line2":"2 64517  51.8984 254.1357 0000540 111.5261 248.5759 14.79937190 51379","mean_motion":14.7993719,"eccentricity":5.4e-5,"inclination_deg":51.8984,"raan_deg":254.1357,"arg_perigee_deg":111.5261,"mean_anomaly_deg":248.5759,"bstar":0.00020178,"rev_number":5137,"period_min":97.301426690953,"perigee_km":629.14398880675,"apogee_km":629.90081602221,"semimajor_km":7007.6594024145,"source":"CELESTRAK","updated_at":"2026-05-25T13:38:04.575924Z"}}}